Simultaneous Nadir Overpasses (SNOs) Predictions

Prediction of SNOs between GOES-17 and AQUA Satellite Orbit:

Table of predicted SNOs for the next 14.0 days since TLE Epoch: 5/8/2021
Index Date Time (GOES-17) GOES-17 Lat,Lon AQUA Lat,Lon Distance(km) Time Diff (sec)
1 05/08/2021 10:36:37 -0.02,-137.20 -0.32,-135.67 172.91 80
2 05/08/2021 23:00:41 0.01,-137.20 -0.77,-140.87 417.28 80
3 05/10/2021 22:48:30 0.01,-137.20 -0.13,-137.92 81.36 80
4 05/12/2021 22:33:39 0.02,-137.19 0.52,-134.96 253.88 80
5 05/13/2021 10:57:34 -0.01,-137.19 0.60,-140.11 332.77 80
6 05/15/2021 10:45:22 -0.01,-137.17 0.01,-137.15 3.34 80
7 05/17/2021 10:30:31 -0.01,-137.14 -0.64,-134.20 334.87 80
8 05/17/2021 22:51:55 0.01,-137.14 -0.49,-139.39 256.22 80
9 05/19/2021 22:42:24 0.01,-137.11 0.17,-136.44 76.69 80
10 05/21/2021 22:30:12 0.01,-137.07 0.77,-133.47 409.05 80
